Weather History for Greenville, AL

Change the Weather History Date:

Saturday, November 17, 2012

  Actual Average Record
Temperature  
Mean Temperature 50 °F -  
Max Temperature 62 °F 68 °F 85 °F (1958)
Min Temperature 37 °F 44 °F 26 °F (1970)
Degree Days  
Heating Degree Days 16    
Moisture  
Dew Point 37 °F    
Average Humidity 67    
Maximum Humidity 93    
Minimum Humidity 38    
Precipitation  
Precipitation 0.01 in - - ()
Sea Level Pressure  
Sea Level Pressure 30.31 in    
Wind  
Wind Speed 4 mph (NNE)    
Max Wind Speed 13 mph    
Max Gust Speed 20 mph    
Visibility 10 miles    
Events      
Averages and records for this station are not official NWS values.
T = Trace of Precipitation, MM = Missing Value Source: NWS Daily Summary

Daily Weather History Graph

Daily Weather History Graph

Search for Another Location

Airport:

Trip Planner

Search our weather history database for the weather conditions in past years. The results will help you decide how hot, cold, wet, or windy it might be!

Date:

Astronomy

Nov. 17, 2012 Rise Set
Actual Time 6:17 AM CST 4:45 PM CST
Civil Twilight 5:51 AM CST 5:11 PM CST
Nautical Twilight 5:21 AM CST 5:41 PM CST
Astronomical Twilight 4:52 AM CST 6:10 PM CST
Moon 10:01 AM CST (11/17) 8:54 PM CST (11/17)
Length of Visible Light 11h 20m
Length of Day
10h 28m
Waxing Crescent, 20% of the Moon is Illuminated
Nov 17
Waxing Crescent
Nov 20
First Quarter
Nov 28
Full
Dec 6
Last Quarter
Dec 13
New

Hourly Weather History & Observations

Time (CST) Temp. Windchill Dew Point Humidity Pressure Visibility Wind Dir Wind Speed Gust Speed Precip Events Conditions
12:56 AM 39.0 °F - 36.0 °F 89% 30.28 in 10.0 mi Calm Calm - N/A   Clear
1:56 AM 39.0 °F - 36.0 °F 89% 30.28 in 10.0 mi Calm Calm - N/A   Clear
2:56 AM 37.0 °F 34.5 °F 35.1 °F 93% 30.29 in 10.0 mi North 3.5 mph - N/A   Clear
3:56 AM 37.0 °F 33.3 °F 35.1 °F 93% 30.30 in 9.0 mi North 4.6 mph - N/A   Clear
4:56 AM 39.0 °F 34.8 °F 36.0 °F 89% 30.32 in 10.0 mi North 5.8 mph - 0.01 in   Clear
5:56 AM 39.0 °F 35.7 °F 37.0 °F 93% 30.33 in 10.0 mi North 4.6 mph - N/A   Clear
6:56 AM 41.0 °F 36.4 °F 37.0 °F 86% 30.35 in 10.0 mi NE 6.9 mph - N/A   Clear
7:56 AM 46.9 °F - 39.9 °F 77% 30.36 in 10.0 mi NE 6.9 mph - N/A   Clear
8:56 AM 52.0 °F - 41.0 °F 66% 30.37 in 10.0 mi NE 8.1 mph - N/A   Clear
9:56 AM 55.9 °F - 39.9 °F 55% 30.36 in 10.0 mi ENE 9.2 mph 18.4 mph N/A   Clear
10:56 AM 57.9 °F - 35.1 °F 42% 30.35 in 10.0 mi NE 12.7 mph 19.6 mph N/A   Clear
11:56 AM 59.0 °F - 36.0 °F 42% 30.32 in 10.0 mi ENE 9.2 mph - N/A   Clear
12:56 PM 60.1 °F - 36.0 °F 41% 30.30 in 10.0 mi North 9.2 mph - N/A   Clear
1:56 PM 62.1 °F - 36.0 °F 38% 30.28 in 10.0 mi Variable 6.9 mph - N/A   Clear
2:56 PM 61.0 °F - 35.1 °F 38% 30.28 in 10.0 mi NNE 6.9 mph - N/A   Clear
3:56 PM 60.1 °F - 35.1 °F 39% 30.29 in 10.0 mi NE 6.9 mph - N/A   Clear
4:56 PM 55.0 °F - 37.0 °F 51% 30.29 in 10.0 mi NE 3.5 mph - N/A   Clear
5:56 PM 48.9 °F - 39.0 °F 69% 30.30 in 10.0 mi North 3.5 mph - N/A   Clear
6:56 PM 46.0 °F 44.8 °F 39.0 °F 76% 30.31 in 10.0 mi North 3.5 mph - N/A   Clear
7:56 PM 46.9 °F - 37.0 °F 68% 30.32 in 10.0 mi NE 4.6 mph - N/A   Clear
8:56 PM 48.9 °F - 36.0 °F 61% 30.32 in 10.0 mi NE 5.8 mph - N/A   Clear
9:56 PM 48.0 °F - 35.1 °F 61% 30.32 in 10.0 mi NE 4.6 mph - N/A   Clear
10:56 PM 46.9 °F - 36.0 °F 66% 30.31 in 10.0 mi Calm Calm - N/A   Clear
11:56 PM 42.1 °F 39.2 °F 35.1 °F 76% 30.31 in 10.0 mi NNE 4.6 mph - N/A   Clear